[[{"header":{"parameterUnit":"m.s-1","parameterCategory":1,"la1":30.2991,"la2":30.254,"lo1":-89.0895,"lo2":-89.0444,"dy":0.0017,"dx":0.0017,"nx":28,"ny":28,"refTime":"2023-09-14T21:00:00:Z","depth":0,"parameterNumber":2,"parameterNumberName":"U-component_of_WINDS"},"data":[0,0,0,0,0,0,0,0,0,0,0,0,0,0,0,0,0,0,0,0,0,0,0,0,0,0,0,0,0,0,0,0,0,0,0,0,0,0,0,0,0,0,0,0,0,0,0,0,0,0,0,0,0,0,0,0,0,0,-2.8086,-2.8086,0,-2.808,-2.808,-2.808,-2.7967,-2.7964,-2.7961,-2.7958,-2.7954,-2.7956,-2.7959,0,0,0,0,0,0,0,0,0,0,0,0,0,-2.7999,-2.8001,-2.8086,-2.8086,-2.8085,-2.808,-2.808,-2.808,-2.7968,-2.7964,-2.796,-2.7957,-2.7953,-2.7956,-2.7959,0,0,0,0,0,0,0,0,0,0,0,0,0,-2.8019,-2.8002,-2.8086,-2.8029,-2.8024,-2.808,-2.808,-2.808,-2.7968,-2.7964,-2.796,-2.7955,-2.7952,-2.7956,-2.7959,-2.807,0,0,-2.7971,-2.7973,0,0,0,0,0,0,0,0,-2.8018,-2.8023,-2.8037,-2.8033,-2.8027,-2.802,-2.8048,-2.8077,-2.7969,-2.7989,-2.7958,-2.7953,-2.7979,-2.7981,-2.7989,-2.807,-2.807,-2.7972,-2.7974,-2.7976,-2.7977,0,0,0,0,0,0,0,-2.8017,-2.8022,-2.8083,-2.8037,-2.8031,-2.8003,-2.8002,-2.8053,-2.8009,-2.7987,-2.7979,-2.798,-2.7976,-2.7986,-2.7988,-2.807,-2.7972,-2.7975,-2.7977,-2.7979,-2.824,-2.8244,0,0,0,0,0,0,-2.8023,-2.8022,-2.8084,-2.8083,-2.8012,-2.8009,-2.8006,-2.8027,-2.8008,-2.8001,-2.7984,-2.7975,-2.7981,-2.7984,-2.7988,-2.8115,-2.7976,-2.7979,-2.7981,-2.8235,-2.8241,-2.8246,0,0,0,0,0,0,-2.8022,-2.803,-2.8084,-2.805,-2.8055,-2.8015,-2.8038,-2.8029,-2.8038,-2.8005,-2.7997,-2.8002,-2.7978,-2.7982,-2.805,-2.8113,-2.7981,-2.7984,-2.823,-2.8237,-2.8244,-2.8371,0,0,0,0,0,0,-2.802,-2.803,-2.8072,-2.8052,-2.8057,-2.8147,-2.8042,-2.8032,-2.8045,-2.8034,-2.802,-2.8014,-2.7975,-2.8045,-2.8054,-2.8116,-2.7988,-2.8224,-2.8233,-2.8241,-2.8361,-2.8381,-2.8399,0,0,0,0,0,-2.8017,-2.8109,-2.8075,-2.8083,-2.8109,-2.8151,-2.8154,-2.8107,-2.8051,-2.8092,-2.8071,-2.8014,-2.8105,-2.8053,-2.8062,-2.8126,-2.822,-2.8231,-2.8241,-2.8352,-2.8377,-2.8398,0,0,0,0,0,0,-2.8137,-2.8105,-2.8067,-2.8154,-2.8156,-2.8131,-2.8182,-2.8135,-2.8153,-2.8141,-2.8082,-2.808,-2.8157,-2.8149,-2.8091,-2.8232,-2.8152,-2.8165,-2.8234,-2.8258,-2.8276,-2.8276,-2.7991,0,0,0,0,0,-2.8174,-2.8211,-2.818,-2.8261,-2.8263,-2.8223,-2.824,-2.8204,-2.8203,-2.8203,-2.8186,-2.8188,-2.8217,-2.8237,-2.8262,-2.836,-2.8354,-2.8408,-2.8427,-2.8443,-2.8454,-2.8504,-2.8527,-2.828,-2.828,-2.828,0,0,-2.825,-2.8237,-2.8264,-2.8284,-2.8281,-2.832,-2.8224,-2.827,-2.8298,-2.821,-2.8272,-2.8261,-2.8259,-2.8342,-2.8378,-2.8337,-2.8521,-2.8456,-2.8469,-2.8471,-2.8517,-2.854,-2.8561,-2.8287,-2.8286,-2.8285,0,0,-2.8408,-2.8403,-2.8467,-2.8466,-2.8463,-2.8435,-2.8451,-2.8434,-2.8422,-2.8484,-2.8418,-2.8452,-2.8503,-2.8503,-2.8511,-2.8669,-2.8617,-2.8679,-2.8777,-2.8826,-2.8846,-2.8863,-2.8917,-2.8938,-2.8691,-2.8691,-2.8691,0,-2.8503,-2.8558,-2.8507,-2.8557,-2.8567,-2.8489,-2.8554,-2.8556,-2.8561,-2.857,-2.8525,-2.8587,-2.858,-2.8661,-2.87,-2.8709,-2.8725,-2.8679,-2.8847,-2.8863,-2.8878,-2.893,-2.8951,-2.8698,-2.8697,-2.8697,-2.8696,0,-2.8674,-2.8714,-2.8767,-2.8773,-2.879,-2.8848,-2.8805,-2.8828,-2.8791,-2.8768,-2.8832,-2.8822,-2.8842,-2.8859,-2.8824,-2.8935,-2.891,-2.8857,-2.8776,-2.891,-2.8957,-2.8977,-2.8709,-2.8706,-2.8704,-2.8702,0,0,-2.8906,-2.8883,-2.8903,-2.8904,-2.8895,-2.8924,-2.8979,-2.8998,-2.9018,-2.9025,-2.9068,-2.9113,-2.9064,-2.9072,-2.9036,-2.9079,-2.9203,-2.902,-2.9019,-2.9053,-2.9324,-2.9362,-2.9386,-2.9169,-2.9173,-2.9176,-2.9323,0,-2.9057,-2.9146,-2.9102,-2.9197,-2.9232,-2.9159,-2.9206,-2.9205,-2.9186,-2.9213,-2.9192,-2.9224,-2.9157,-2.9161,-2.9201,-2.918,-2.9256,-2.9169,-2.9208,-2.921,-2.9208,-2.9411,-2.9452,-2.9591,-2.9342,-2.9345,-2.9347,0,-2.9244,-2.9257,-2.9356,-2.9339,-2.9352,-2.9395,-2.9408,-2.9436,-2.9434,-2.9416,-2.9426,-2.938,-2.9431,-2.9352,-2.9421,-2.9363,-2.9376,-2.9369,-2.9373,-2.9373,-2.9285,-2.9414,-2.9635,-2.9655,-2.9376,-2.9374,-2.9372,0,-2.9401,-2.9444,-2.9507,-2.9511,-2.9493,-2.9525,-2.9519,-2.9512,-2.9527,-2.9539,-2.9548,-2.9567,-2.9577,-2.9593,-2.9552,-2.9499,-2.9627,-2.9545,-2.9613,-2.9614,-2.9641,-2.964,-2.9865,-2.9654,-2.9654,-2.9654,-2.9653,0,-2.9572,-2.9635,-2.9577,-2.9617,-2.9684,-2.9633,-2.9702,-2.9688,-2.9683,-2.9718,-2.9657,-2.9691,-2.9637,-2.9666,-2.9635,-2.9696,-2.9702,-2.9689,-2.9679,-2.9693,-2.9694,-2.9699,-2.9688,-2.9659,-2.9658,-2.9657,-2.9656,0,-2.9757,-2.9722,-2.9786,-2.9764,-2.976,-2.9811,-2.9791,-2.9827,-2.9803,-2.9849,-2.9856,-2.982,-2.9851,-2.9813,-2.9841,-2.982,-2.9903,-2.988,-2.9903,-2.9896,-2.9965,-2.9958,-3.0199,-3.0227,-3.0001,-3.0004,-3.0006,0,-2.9868,-2.9914,-2.9897,-2.9915,-2.9913,-2.9944,-2.9958,-2.991,-2.9927,-2.9928,-2.9963,-2.9989,-3.0006,-3.0059,-3.0035,-3.0056,-3.0032,-3.0115,-3.0035,-3.0046,-3.0031,-3.0027,-3.0031,-3.0131,-3.0134,-3.0136,-3.0138,0,-3.0067,-3.0047,-3.0069,-3.0086,-3.0104,-3.0115,-3.0121,-3.014,-3.009,-3.0112,-3.0143,-3.0157,-3.0185,-3.021,-3.0225,-3.0218,-3.017,-3.0164,-3.018,-3.0193,-3.0203,-3.0196,-2.9945,-3.0158,-3.0156,-3.0154,-3.0153,-3.0152,-3.0216,-3.0253,-3.0246,-3.0273,-3.0273,-3.028,-3.0311,-3.0292,-3.0316,-3.0334,-3.0305,-3.0343,-3.0339,-3.0353,-3.0353,-3.0382,-3.0346,-3.0371,-3.0376,-3.0382,-3.0392,-3.0201,-3.0385,-3.0384,-3.0384,-3.0383,-3.0383,0,-3.0409,-3.0401,-3.0427,-3.0437,-3.0458,-3.0411,-3.0415,-3.0436,-3.047,-3.0471,-3.0489,-3.0524,-3.0549,-3.0527,-3.0548,-3.0575,-3.0553,-3.0582,-3.0578,-3.0577,-3.0424,-3.0406,-3.0599,-3.0599,-3.0599,-3.0599,-3.0599,-3.0599,-3.0512,-3.0572,-3.0551,-3.061,-3.0601,-3.0638,-3.0644,-3.065,-3.065,-3.0691,-3.0711,-3.0697,-3.0689,-3.0708,-3.0729,-3.0722,-3.0731,-3.0768,-3.0753,-3.0609,-3.0588,-3.0568,-3.0551,-3.0771,-3.0771,-3.0903,-3.0904,-3.0905]},{"header":{"parameterUnit":"m.s-1","parameterCategory":1,"la1":30.2991,"la2":30.254,"lo1":-89.0895,"lo2":-89.0444,"dy":0.0017,"dx":0.0017,"nx":28,"ny":28,"refTime":"2023-09-14T21:00:00:Z","depth":0,"parameterNumber":3,"parameterNumberName":"V-component_of_WINDS"},"data":[0,0,0,0,0,0,0,0,0,0,0,0,0,0,0,0,0,0,0,0,0,0,0,0,0,0,0,0,0,0,0,0,0,0,0,0,0,0,0,0,0,0,0,0,0,0,0,0,0,0,0,0,0,0,0,0,0,0,-1.3839,-1.3839,0,-1.3864,-1.3864,-1.3864,-1.3881,-1.3881,-1.3881,-1.3881,-1.3906,-1.3906,-1.3907,0,0,0,0,0,0,0,0,0,0,0,0,0,-1.3802,-1.3803,-1.3839,-1.3839,-1.3839,-1.3864,-1.3864,-1.3864,-1.3881,-1.3881,-1.3881,-1.3881,-1.3905,-1.3906,-1.3907,0,0,0,0,0,0,0,0,0,0,0,0,0,-1.3822,-1.3803,-1.3838,-1.385,-1.3852,-1.3864,-1.3864,-1.3865,-1.3881,-1.3881,-1.3881,-1.3881,-1.3905,-1.3906,-1.3907,-1.3909,0,0,-1.3909,-1.391,0,0,0,0,0,0,0,0,-1.382,-1.3823,-1.3848,-1.385,-1.3851,-1.3869,-1.386,-1.3879,-1.3881,-1.387,-1.3881,-1.3881,-1.3893,-1.3895,-1.39,-1.391,-1.3911,-1.391,-1.391,-1.391,-1.3911,0,0,0,0,0,0,0,-1.3819,-1.3822,-1.3849,-1.3849,-1.385,-1.3854,-1.3857,-1.3864,-1.388,-1.3871,-1.3872,-1.3875,-1.3894,-1.3899,-1.39,-1.3911,-1.3909,-1.391,-1.3911,-1.3911,-1.3923,-1.3922,0,0,0,0,0,0,-1.3816,-1.3821,-1.3848,-1.3849,-1.3836,-1.3854,-1.3857,-1.3863,-1.388,-1.3883,-1.3875,-1.3875,-1.3897,-1.3899,-1.3901,-1.3903,-1.391,-1.3911,-1.3912,-1.3923,-1.3923,-1.3922,0,0,0,0,0,0,-1.3815,-1.3818,-1.3847,-1.3835,-1.3839,-1.3855,-1.3861,-1.3864,-1.3868,-1.3883,-1.3886,-1.3876,-1.3897,-1.39,-1.3906,-1.3905,-1.3911,-1.3912,-1.3923,-1.3923,-1.3922,-1.3908,0,0,0,0,0,0,-1.3814,-1.3818,-1.382,-1.3835,-1.384,-1.3852,-1.3861,-1.3864,-1.387,-1.3871,-1.3886,-1.3888,-1.3898,-1.3905,-1.3907,-1.3906,-1.3913,-1.3923,-1.3923,-1.3923,-1.3909,-1.3908,-1.3907,0,0,0,0,0,-1.3813,-1.3815,-1.382,-1.3823,-1.3842,-1.3852,-1.3855,-1.3866,-1.387,-1.3871,-1.388,-1.3888,-1.3904,-1.3906,-1.3908,-1.3907,-1.3923,-1.3923,-1.3923,-1.391,-1.3908,-1.3907,0,0,0,0,0,0,-1.3798,-1.3817,-1.3823,-1.383,-1.3839,-1.3855,-1.3857,-1.3864,-1.3872,-1.3873,-1.3886,-1.389,-1.3894,-1.3901,-1.3902,-1.3909,-1.3915,-1.3915,-1.3904,-1.3903,-1.3901,-1.3899,-1.3914,0,0,0,0,0,-1.3796,-1.3803,-1.3819,-1.3824,-1.3828,-1.3842,-1.3846,-1.3854,-1.3864,-1.3868,-1.3878,-1.3887,-1.3894,-1.3899,-1.3906,-1.391,-1.3913,-1.391,-1.3909,-1.3908,-1.3908,-1.3909,-1.3907,-1.3921,-1.3921,-1.3921,0,0,-1.3791,-1.3802,-1.3806,-1.3821,-1.3829,-1.3836,-1.3845,-1.3852,-1.3856,-1.3869,-1.3876,-1.3883,-1.3894,-1.3899,-1.3901,-1.3905,-1.3904,-1.3907,-1.3906,-1.3907,-1.3908,-1.3907,-1.3906,-1.3921,-1.3921,-1.3921,0,0,-1.3786,-1.3796,-1.38,-1.3808,-1.382,-1.3829,-1.3829,-1.3844,-1.3849,-1.3856,-1.3866,-1.3871,-1.3883,-1.389,-1.3895,-1.389,-1.3897,-1.3892,-1.3885,-1.3886,-1.3885,-1.3884,-1.3881,-1.388,-1.3892,-1.3892,-1.3892,0,-1.3779,-1.3789,-1.3801,-1.3807,-1.3812,-1.3825,-1.3828,-1.3835,-1.3849,-1.3852,-1.3856,-1.3871,-1.3879,-1.3885,-1.3883,-1.3887,-1.3888,-1.3891,-1.3884,-1.3884,-1.3883,-1.388,-1.3879,-1.3891,-1.3891,-1.3891,-1.3892,0,-1.3779,-1.3786,-1.3788,-1.3801,-1.3806,-1.3811,-1.3823,-1.3827,-1.3834,-1.3842,-1.3847,-1.3858,-1.3867,-1.3869,-1.3876,-1.3875,-1.3876,-1.3882,-1.3888,-1.3881,-1.3878,-1.3878,-1.389,-1.3891,-1.3891,-1.3891,0,0,-1.3766,-1.3785,-1.3785,-1.379,-1.3804,-1.3809,-1.3813,-1.3822,-1.3825,-1.3834,-1.3837,-1.3847,-1.3851,-1.3857,-1.3865,-1.3865,-1.3859,-1.3871,-1.3871,-1.3868,-1.3858,-1.3853,-1.3852,-1.3864,-1.3864,-1.3864,-1.3857,0,-1.3762,-1.3772,-1.3782,-1.3787,-1.3793,-1.3803,-1.3807,-1.3815,-1.3822,-1.3827,-1.3835,-1.3841,-1.3847,-1.3851,-1.3852,-1.386,-1.3858,-1.3861,-1.3866,-1.3866,-1.3863,-1.3851,-1.3847,-1.3839,-1.3856,-1.3856,-1.3856,0,-1.376,-1.3767,-1.3773,-1.3785,-1.3787,-1.3791,-1.3799,-1.3804,-1.3813,-1.3817,-1.3823,-1.3831,-1.3835,-1.384,-1.3845,-1.3847,-1.385,-1.3854,-1.3854,-1.3854,-1.386,-1.3851,-1.3838,-1.3836,-1.3855,-1.3855,-1.3855,0,-1.3749,-1.3761,-1.3765,-1.377,-1.3783,-1.3785,-1.3791,-1.38,-1.3804,-1.3811,-1.3813,-1.382,-1.3824,-1.3829,-1.3838,-1.3841,-1.3841,-1.3848,-1.3844,-1.3844,-1.3844,-1.3844,-1.383,-1.3847,-1.3847,-1.3847,-1.3847,0,-1.3744,-1.3746,-1.3761,-1.3763,-1.3766,-1.3777,-1.378,-1.3786,-1.3794,-1.3797,-1.3807,-1.3809,-1.3821,-1.3825,-1.3832,-1.3834,-1.3836,-1.3839,-1.3841,-1.3838,-1.3838,-1.384,-1.3841,-1.3846,-1.3846,-1.3846,-1.3847,0,-1.3732,-1.3742,-1.3748,-1.3759,-1.3762,-1.3764,-1.3774,-1.3776,-1.3783,-1.3787,-1.3789,-1.38,-1.3805,-1.3814,-1.3822,-1.3826,-1.3826,-1.383,-1.3824,-1.3825,-1.382,-1.382,-1.3808,-1.3806,-1.3824,-1.3824,-1.3823,0,-1.3728,-1.3731,-1.3742,-1.3745,-1.3751,-1.3755,-1.3759,-1.3769,-1.3773,-1.3782,-1.3783,-1.3789,-1.3794,-1.3801,-1.3809,-1.3814,-1.3817,-1.3812,-1.3818,-1.3815,-1.3816,-1.3816,-1.3815,-1.3811,-1.3811,-1.3811,-1.381,0,-1.372,-1.3724,-1.3729,-1.3736,-1.374,-1.3746,-1.3752,-1.3754,-1.3765,-1.3768,-1.3773,-1.3777,-1.3784,-1.3789,-1.3795,-1.38,-1.3807,-1.3808,-1.3808,-1.3805,-1.3801,-1.3802,-1.3819,-1.3809,-1.3809,-1.3809,-1.3809,-1.3809,-1.3711,-1.3713,-1.3721,-1.3727,-1.3732,-1.3737,-1.374,-1.3746,-1.3751,-1.3757,-1.3763,-1.3767,-1.3774,-1.3783,-1.3787,-1.379,-1.3793,-1.3792,-1.3792,-1.3792,-1.379,-1.38,-1.3791,-1.3791,-1.3791,-1.3791,-1.3791,0,-1.3702,-1.3708,-1.3712,-1.372,-1.3724,-1.3729,-1.3736,-1.3738,-1.3742,-1.3748,-1.3752,-1.3757,-1.3761,-1.3769,-1.3774,-1.3774,-1.3777,-1.3775,-1.3775,-1.3776,-1.3787,-1.3787,-1.3773,-1.3773,-1.3773,-1.3773,-1.3773,-1.3773,-1.3698,-1.3701,-1.3706,-1.3711,-1.3716,-1.372,-1.3723,-1.3728,-1.3732,-1.3737,-1.3741,-1.3746,-1.3752,-1.3757,-1.376,-1.3762,-1.3763,-1.376,-1.3763,-1.3774,-1.3775,-1.3777,-1.3777,-1.376,-1.376,-1.3751,-1.3751,-1.3751]}]]